Location: Unspecified
(0.0000°N, 0.0000°E)
Time: 01:28:57
(UTC+00:00)

Courier 1B - Pass Details

Date: 26 November 2019
Orbit: 963 x 1209 km, 28.3° (Epoch: 11 December)

Event Time Altitude Azimuth Distance (km) Brightness Sun altitude
Rises 22:50:14 0° 243° (WSW) 4,064 - -64.8°
Reaches altitude 10° 22:53:03 10° 244° (WSW) 3,119 - -65.1°
Maximum altitude 23:00:53 79° 329° (NNW) 1,227 - -66.1°
Drops below altitude 10° 23:08:43 10° 56° (NE) 3,117 - -67.0°
Sets 23:11:32 0° 57° (ENE) 4,062 - -67.2°
